H1 CPF 2 NER 2023 8 25 9 237 01 glonass137 H2 1705501 9137 42939 2023 8 25 0 0 0 2023 8 28 23 45 0 900 1 1 0 0 0 1 H9 10 0 60181 0.00000 0 6739819.897 -13153233.916 20814325.832 10 0 60181 900.00000 0 7509930.790 -10634927.650 21957453.564 10 0 60181 1800.00000 0 8500612.697 -8071757.412 22675105.559 10 0 60181 2700.00000 0 9698395.722 -5530519.354 22953329.887 10 0 60181 3600.00000 0 11078076.185 -3075141.330 22786664.760 10 0 60181 4500.00000 0 12603629.817 -764242.471 22178248.748 10 0 60181 5400.00000 0 14229594.161 1351078.023 21139767.678 10 0 60181 6300.00000 0 15902864.132 3229132.220 19691238.574 10 0 60181 7200.00000 0 17564827.300 4839137.170 17860633.871 10 0 60181 8100.00000 0 19153751.117 6162249.526 15683352.002 10 0 60181 9000.00000 0 20607323.383 7192098.355 13201543.292 10 0 60181 9900.00000 0 21865240.274 7934794.088 10463303.002 10 0 60181 10800.00000 0 22871733.714 8408413.396 7521746.096 10 0 60181 11700.00000 0 23577931.726 8641981.689 4433980.861 10 0 60181 12600.00000 0 23943951.897 8673996.201 1260000.940 10 0 60181 13500.00000 0 23940638.777 8550552.252 -1938482.727 10 0 60181 14400.00000 0 23550870.806 8323152.288 -5099246.986 10 0 60181 15300.00000 0 22770380.246 8046291.124 -8160774.395 10 0 60181 16200.00000 0 21608050.216 7774920.539 -11063459.366 10 0 60181 17100.00000 0 20085675.082 7561901.766 -13750778.009 10 0 60181 18000.00000 0 18237193.283 7455555.032 -16170397.811 10 0 60181 18900.00000 0 16107424.162 7497411.232 -18275204.626 10 0 60181 19800.00000 0 13750361.430 7720262.138 -20024226.267 10 0 60181 20700.00000 0 11227094.666 8146592.738 -21383434.206 10 0 60181 21600.00000 0 8603445.946 8787462.878 -22326407.586 10 0 60181 22500.00000 0 5947420.474 9641886.191 -22834846.674 10 0 60181 23400.00000 0 3326577.818 10696733.002 -22898925.985 10 0 60181 24300.00000 0 805433.321 11927161.649 -22517480.627 10 0 60181 25200.00000 0 -1557002.245 13297560.253 -21698022.692 10 0 60181 26100.00000 0 -3709442.820 14762959.327 -20456587.879 10 0 60181 27000.00000 0 -5610215.353 16270855.809 -18817415.827 10 0 60181 27900.00000 0 -7228738.791 17763371.757 -16812470.769 10 0 60181 28800.00000 0 -8546533.553 19179656.832 -14480812.300 10 0 60181 29700.00000 0 -9557721.154 20458433.529 -11867828.825 10 0 60181 30600.00000 0 -10268995.090 21540578.104 -9024348.959 10 0 60181 31500.00000 0 -10699066.261 22371628.701 -6005648.557 10 0 60181 32400.00000 0 -10877608.322 22904115.340 -2870373.017 10 0 60181 33300.00000 0 -10843749.198 23099613.982 320603.854 10 0 60181 34200.00000 0 -10644173.979 22930438.602 3505361.917 10 0 60181 35100.00000 0 -10330920.500 22380900.502 6622134.560 10 0 60181 36000.00000 0 -9958961.554 21448082.313 9610503.034 10 0 60181 36900.00000 0 -9583676.341 20142094.525 12412562.169 10 0 60181 37800.00000 0 -9258318.018 18485803.974 14974035.287 10 0 60181 38700.00000 0 -9031584.075 16514045.621 17245317.291 10 0 60181 39600.00000 0 -8945391.602 14272350.343 19182426.490 10 0 60181 40500.00000 0 -9032950.749 11815241.235 20747847.690 10 0 60181 41400.00000 0 -9317217.071 9204168.566 21911251.216 10 0 60181 42300.00000 0 -9809787.614 6505168.147 22650074.844 10 0 60181 43200.00000 0 -10510287.209 3786339.093 22949958.159 10 0 60181 44100.00000 0 -11406271.176 1115244.103 22805021.417 10 0 60181 45000.00000 0 -12473649.344 -1443661.311 22217983.636 10 0 60181 45900.00000 0 -13677614.766 -3831465.552 21200117.417 10 0 60181 46800.00000 0 -14974039.670 -5997003.775 19771040.717 10 0 60181 47700.00000 0 -16311281.619 -7898736.402 17958348.688 10 0 60181 48600.00000 0 -17632325.696 -9506226.031 15797091.539 10 0 60181 49500.00000 0 -18877174.132 -10801151.737 13329107.214 10 0 60181 50400.00000 0 -19985383.998 -11777818.743 10602220.616 10 0 60181 51300.00000 0 -20898646.835 -12443142.260 7669323.797 10 0 60181 52200.00000 0 -21563301.710 -12816106.256 4587354.117 10 0 60181 53100.00000 0 -21932675.400 -12926719.952 1416189.845 10 0 60181 54000.00000 0 -21969150.135 -12814516.159 -1782515.428 10 0 60181 54900.00000 0 -21645870.447 -12526655.164 -4946536.558 10 0 60181 55800.00000 0 -20948015.622 -12115714.824 -8014294.647 10 0 60181 56700.00000 0 -19873582.531 -11637261.117 -10926064.273 10 0 60181 57600.00000 0 -18433644.314 -11147302.946 -13625145.618 10 0 60181 58500.00000 0 -16652072.694 -10699740.038 -16058977.567 10 0 60181 59400.00000 0 -14564734.519 -10343913.116 -18180169.191 10 0 60181 60300.00000 0 -12218195.484 -10122361.134 -19947428.807 10 0 60181 61200.00000 0 -9667984.906 -10068881.369 -21326371.992 10 0 60181 62100.00000 0 -6976493.972 -10206975.184 -22290192.646 10 0 60181 63000.00000 0 -4210595.154 -10548745.629 -22820184.076 10 0 60181 63900.00000 0 -1439082.225 -11094293.748 -22906100.168 10 0 60181 64800.00000 0 1269962.498 -11831639.149 -22546350.036 10 0 60181 65700.00000 0 3851764.195 -12737168.128 -21748022.824 10 0 60181 66600.00000 0 6247307.145 -13776590.257 -20526742.640 10 0 60181 67500.00000 0 8405540.474 -14906362.860 -18906356.942 10 0 60181 68400.00000 0 10285247.190 -16075523.080 -16918464.865 10 0 60181 69300.00000 0 11856499.822 -17227850.030 -14601795.071 10 0 60181 70200.00000 0 13101643.528 -18304265.707 -12001445.616 10 0 60181 71100.00000 0 14015767.400 -19245373.293 -9168000.937 10 0 60181 72000.00000 0 14606646.193 -19994025.760 -6156543.566 10 0 60181 72900.00000 0 14894156.965 -20497816.500 -3025580.098 10 0 60181 73800.00000 0 14909197.082 -20711387.111 164097.344 10 0 60181 74700.00000 0 14692150.880 -20598455.241 3350591.719 10 0 60181 75600.00000 0 14290971.065 -20133477.311 6472100.623 10 0 60181 76500.00000 0 13758956.844 -19302876.375 9468111.446 10 0 60181 77400.00000 0 13152323.210 -18105783.677 12280569.072 10 0 60181 78300.00000 0 12527664.195 -16554262.828 14854993.835 10 0 60181 79200.00000 0 11939416.991 -14673007.092 17141528.645 10 0 60181 80100.00000 0 11437433.421 -12498522.078 19095895.778 10 0 60181 81000.00000 0 11064760.464 -10077827.350 20680245.715 10 0 60181 81900.00000 0 10855722.577 -7466730.109 21863882.613 10 0 60181 82800.00000 0 10834385.870 -4727741.639 22623853.223 10 0 60181 83700.00000 0 11013468.288 -1927721.626 22945388.687 10 0 60181 84600.00000 0 11393741.454 864653.450 22822191.135 10 0 60181 85500.00000 0 11963949.576 3581494.438 22256559.676 10 0 60182 0.00000 0 12701249.396 6158269.555 21259353.278 10 0 60182 900.00000 0 13572154.117 8536236.530 19849790.000 10 0 60182 1800.00000 0 14533941.866 10664633.658 18055086.996 10 0 60182 2700.00000 0 15536472.177 12502544.228 15909945.324 10 0 60182 3600.00000 0 16524334.434 14020353.873 13455889.471 10 0 60182 4500.00000 0 17439239.284 15200741.781 10740472.716 10 0 60182 5400.00000 0 18222552.956 16039164.234 7816362.722 10 0 60182 6300.00000 0 18817867.908 16543810.227 4740324.227 10 0 60182 7200.00000 0 19173501.088 16735030.948 1572118.194 10 0 60182 8100.00000 0 19244813.633 16644267.151 -1626661.267 10 0 60182 9000.00000 0 18996252.887 16312519.776 -4793789.314 10 0 60182 9900.00000 0 18403029.018 15788428.695 -7867627.977 10 0 60182 10800.00000 0 17452353.819 15126041.367 -10788334.425 10 0 60182 11700.00000 0 16144187.693 14382366.483 -13499035.302 10 0 60182 12600.00000 0 14491461.769 13614817.031 -15946943.209 10 0 60182 13500.00000 0 12519764.359 12878651.901 -18084392.653 10 0 60182 14400.00000 0 10266503.791 12224525.200 -19869774.564 10 0 60182 15300.00000 0 7779581.913 11696247.710 -21268350.624 10 0 60182 16200.00000 0 5115633.234 11328855.725 -22252931.372 10 0 60182 17100.00000 0 2337903.003 11147069.180 -22804404.879 10 0 60182 18000.00000 0 -486147.383 11164204.304 -22912105.925 10 0 60182 18900.00000 0 -3287407.895 11381586.528 -22574018.893 10 0 60182 19800.00000 0 -5997753.568 11788488.064 -21796810.876 10 0 60182 20700.00000 0 -8552634.958 12362592.280 -20595694.869 10 0 60182 21600.00000 0 -10893518.035 13070964.725 -18994126.168 10 0 60182 22500.00000 0 -12970072.684 13871489.201 -17023338.346 10 0 60182 23400.00000 0 -14742019.579 14714707.715 -14721728.220 10 0 60182 24300.00000 0 -16180559.749 15545986.160 -12134102.171 10 0 60182 25200.00000 0 -17269328.667 16307913.866 -9310798.793 10 0 60182 26100.00000 0 -18004836.688 16942835.409 -6306705.334 10 0 60182 27000.00000 0 -18396379.270 17395407.576 -3180187.406 10 0 60182 27900.00000 0 -18465422.611 17615073.445 8046.929 10 0 60182 28800.00000 0 -18244492.283 17558349.184 3196126.276 10 0 60182 29700.00000 0 -17775613.211 17190827.159 6322215.108 10 0 60182 30600.00000 0 -17108367.916 16488811.064 9325709.766 10 0 60182 31500.00000 0 -16297655.706 15440514.291 12148408.090 10 0 60182 32400.00000 0 -15401247.693 14046771.154 14735630.372 10 0 60182 33300.00000 0 -14477240.656 12321230.934 17037270.490 10 0 60182 34200.00000 0 -13581516.638 10290026.212 19008757.589 10 0 60182 35100.00000 0 -12765314.539 7990928.677 20611910.612 10 0 60182 36000.00000 0 -12073015.001 5472026.656 21815670.139 10 0 60182 36900.00000 0 -11540230.817 2789978.190 22596694.245 10 0 60182 37800.00000 0 -11192282.268 7910.824 22939807.668 10 0 60182 38700.00000 0 -11043120.797 -2806946.368 22838296.072 10 0 60182 39600.00000 0 -11094745.967 -5585801.966 22294039.910 10 0 60182 40500.00000 0 -11337140.206 -8260908.994 21317485.084 10 0 60182 41400.00000 0 -11748724.574 -10768132.757 19927450.400 10 0 60182 42300.00000 0 -12297317.125 -13049374.454 18150774.635 10 0 60182 43200.00000 0 -12941554.569 -15054750.892 16021808.923 10 0 60182 44100.00000 0 -13632718.438 -16744440.329 13581763.003 10 0 60182 45000.00000 0 -14316889.806 -18090117.829 10877916.758 10 0 60182 45900.00000 0 -14937342.438 -19075920.309 7962711.242 10 0 60182 46800.00000 0 -15437073.733 -19698900.765 4892735.966 10 0 60182 47700.00000 0 -15761366.495 -19968952.432 1727631.661 10 0 60182 48600.00000 0 -15860272.702 -19908205.858 -1471070.257 10 0 60182 49500.00000 0 -15690913.260 -19549924.227 -4641148.674 10 0 60182 50400.00000 0 -15219495.148 -18936943.570 -7720910.159 10 0 60182 51300.00000 0 -14422959.040 -18119724.045 -10650398.175 10 0 60182 52200.00000 0 -13290186.047 -17154095.132 -13372569.570 10 0 60182 53100.00000 0 -11822710.917 -16098790.729 -15834414.321 10 0 60182 54000.00000 0 -10034909.971 -15012879.153 -17987995.841 10 0 60182 54900.00000 0 -7953654.448 -13953197.423 -19791390.815 10 0 60182 55800.00000 0 -5617442.674 -12971898.934 -21209509.730 10 0 60182 56700.00000 0 -3075046.543 -12114218.578 -22214781.912 10 0 60182 57600.00000 0 -383728.348 -11416549.873 -22787691.730 10 0 60182 58500.00000 0 2392897.943 -10904915.205 -22917155.754 10 0 60182 59400.00000 0 5187271.985 -10593893.349 -22600733.897 10 0 60182 60300.00000 0 7930458.902 -10486048.898 -21844670.895 10 0 60182 61200.00000 0 10554780.782 -10571886.894 -20663767.793 10 0 60182 62100.00000 0 12996398.589 -10830333.627 -19081086.425 10 0 60182 63000.00000 0 15197737.516 -11229722.349 -17127493.071 10 0 60182 63900.00000 0 17109655.418 -11729241.363 -14841050.575 10 0 60182 64800.00000 0 18693264.911 -12280782.425 -12266271.138 10 0 60182 65700.00000 0 19921334.308 -12831110.650 -9453244.656 10 0 60182 66600.00000 0 20779210.243 -13324263.575 -6456659.953 10 0 60182 67500.00000 0 21265225.012 -13704077.537 -3334738.280 10 0 60182 68400.00000 0 21390573.226 -13916734.267 -148100.139 10 0 60182 69300.00000 0 21178664.644 -13913219.924 3041412.220 10 0 60182 70200.00000 0 20663981.906 -13651592.642 6171933.548 10 0 60182 71100.00000 0 19890492.529 -13098962.902 9182772.294 10 0 60182 72000.00000 0 18909682.951 -12233103.253 12015582.084 10 0 60182 72900.00000 0 17778297.943 -11043619.570 14615485.613 10 0 60182 73800.00000 0 16555880.641 -9532634.407 16932129.751 10 0 60182 74700.00000 0 15302216.435 -7714953.404 18920652.102 10 0 60182 75600.00000 0 14074787.510 -5617707.109 20542541.252 10 0 60182 76500.00000 0 12926344.088 -3279482.201 21766375.004 10 0 60182 77400.00000 0 11902693.273 -748977.129 22568423.212 10 0 60182 78300.00000 0 11040797.175 1916763.416 22933104.333 10 0 60182 79200.00000 0 10367259.124 4654463.493 22853287.414 10 0 60182 80100.00000 0 9897260.700 7396994.349 22330433.826 10 0 60182 81000.00000 0 9633993.705 10075919.367 21374575.854 10 0 60182 81900.00000 0 9568610.831 12624101.639 20004131.995 10 0 60182 82800.00000 0 9680697.324 14978267.276 18245561.650 10 0 60182 83700.00000 0 9939244.357 17081419.123 16132864.786 10 0 60182 84600.00000 0 10304083.833 18885001.217 13706934.972 10 0 60182 85500.00000 0 10727724.929 20350724.150 11014777.089 10 0 60183 0.00000 0 11157515.498 21451975.154 8108604.076 10 0 60183 900.00000 0 11538037.678 22174754.215 5044827.731 10 0 60183 1800.00000 0 11813635.901 22518095.257 1882966.670 10 0 60183 2700.00000 0 11930970.772 22493956.238 -1315512.647 10 0 60183 3600.00000 0 11841489.328 22126580.932 -4488395.189 10 0 60183 4500.00000 0 11503706.145 21451359.704 -7573934.440 10 0 60183 5400.00000 0 10885197.216 20513237.276 -10512062.509 10 0 60183 6300.00000 0 9964220.534 19364734.891 -13245568.702 10 0 60183 7200.00000 0 8730893.128 18063670.850 -15721222.521 10 0 60183 8100.00000 0 7187873.107 16670676.253 -17890818.302 10 0 60183 9000.00000 0 5350516.368 15246611.435 -19712120.375 10 0 60183 9900.00000 0 3246499.979 13849992.722 -21149689.794 10 0 60183 10800.00000 0 914926.937 12534538.456 -22175576.302 10 0 60183 11700.00000 0 -1595051.077 11346937.915 -22769862.051 10 0 60183 12600.00000 0 -4226035.895 10324937.039 -22921046.678 10 0 60183 13500.00000 0 -6914535.171 9495821.144 -22626266.647 10 0 60183 14400.00000 0 -9593375.300 8875357.797 -21891345.013 10 0 60183 15300.00000 0 -12194274.536 8467243.363 -20730671.157 10 0 60183 16200.00000 0 -14650469.385 8263075.345 -19166913.301 10 0 60183 17100.00000 0 -16899285.175 8242850.381 -17230569.847 10 0 60183 18000.00000 0 -18884544.124 8375965.557 -14959368.681 10 0 60183 18900.00000 0 -20558711.190 8622679.502 -12397526.495 10 0 60183 19800.00000 0 -21884688.996 8935970.404 -9594882.882 10 0 60183 20700.00000 0 -22837187.925 9263711.429 -6605926.410 10 0 60183 21600.00000 0 -23403615.338 9551070.784 -3488731.966 10 0 60183 22500.00000 0 -23584448.093 9743034.327 -303830.330 10 0 60183 23400.00000 0 -23393074.179 9786943.649 2886967.699 10 0 60183 24300.00000 0 -22855111.552 9634942.096 6021769.603 10 0 60183 25200.00000 0 -22007234.018 9246225.296 9039798.533 10 0 60183 26100.00000 0 -20895554.556 8589001.133 11882566.614 10 0 60183 27000.00000 0 -19573634.633 7642076.529 14495001.745 10 0 60183 27900.00000 0 -18100203.475 6396004.058 16826506.594 10 0 60183 28800.00000 0 -16536682.902 4853739.937 18831929.986 10 0 60183 29700.00000 0 -14944621.088 3030785.204 20472432.776 10 0 60183 30600.00000 0 -13383141.980 954803.324 21716232.403 10 0 60183 31500.00000 0 -11906516.173 -1335270.979 22539212.626 10 0 60183 32400.00000 0 -10561953.736 -3790595.964 22925387.438 10 0 60183 33300.00000 0 -9387710.162 -6354205.117 22867210.712 10 0 60183 34200.00000 0 -8411583.656 -8963135.088 22365725.804 10 0 60183 35100.00000 0 -7649865.787 -11550812.801 21430552.047 10 0 60183 36000.00000 0 -7106788.923 -14049604.337 20079707.884 10 0 60183 36900.00000 0 -6774493.351 -16393421.239 18339273.177 10 0 60183 37800.00000 0 -6633515.557 -18520277.124 16242896.135 10 0 60183 38700.00000 0 -6653777.409 -20374689.071 13831153.157 10 0 60183 39600.00000 0 -6796035.063 -21909824.107 11150772.735 10 0 60183 40500.00000 0 -7013726.924 -23089301.282 8253737.400 10 0 60183 41400.00000 0 -7255142.958 -23888573.669 5196280.204 10 0 60183 42300.00000 0 -7465823.738 -24295831.888 2037794.781 10 0 60183 43200.00000 0 -7591087.399 -24312390.611 -1160319.999 10 0 60183 44100.00000 0 -7578576.888 -23952541.200 -4335858.059 10 0 60183 45000.00000 0 -7380718.553 -23242876.164 -7427022.885 10 0 60183 45900.00000 0 -6956986.591 -22221113.612 -10373638.492 10 0 60183 46800.00000 0 -6275875.894 -20934471.199 -13118330.035 10 0 60183 47700.00000 0 -5316498.060 -19437658.294 -15607649.968 10 0 60183 48600.00000 0 -4069731.425 -17790571.436 -17793126.901 10 0 60183 49500.00000 0 -2538874.866 -16055790.655 -19632215.978 10 0 60183 50400.00000 0 -739776.360 -14295982.671 -21089131.683 10 0 60183 51300.00000 0 1299570.408 -12571320.692 -22135546.626 10 0 60183 52200.00000 0 3539945.491 -10937029.546 -22751142.698 10 0 60183 53100.00000 0 5932300.415 -9441159.333 -22924004.039 10 0 60183 54000.00000 0 8419576.293 -8122680.750 -22650844.560 10 0 60183 54900.00000 0 10938866.727 -7009981.367 -21937066.016 10 0 60183 55800.00000 0 13423835.450 -6119825.016 -20796646.013 10 0 60183 56700.00000 0 15807288.031 -5456816.676 -19251858.575 10 0 60183 57600.00000 0 18023790.619 -5013393.839 -17332833.187 10 0 60183 58500.00000 0 20012226.717 -4770343.099 -15076961.264 10 0 60183 59400.00000 0 21718185.710 -4697818.561 -12528162.013 10 0 60183 60300.00000 0 23096083.976 -4756817.559 -9736022.282 10 0 60183 61200.00000 0 24110930.657 -4901049.970 -6754827.513 10 0 60183 62100.00000 0 24739665.154 -5079120.991 -3642502.996 10 0 60183 63000.00000 0 24972011.444 -5236934.113 -459486.297 10 0 60183 63900.00000 0 24810814.559 -5320212.017 2732446.866 10 0 60183 64800.00000 0 24271846.343 -5277028.319 5871380.326 10 0 60183 65700.00000 0 23383089.739 -5060242.893 8896455.427 10 0 60183 66600.00000 0 22183532.600 -4629737.771 11749046.029 10 0 60183 67500.00000 0 20721522.330 -3954359.242 14373888.130 10 0 60183 68400.00000 0 19052750.677 -3013484.209 16720142.711 10 0 60183 69300.00000 0 17237953.191 -1798144.710 18742371.915 10 0 60183 70200.00000 0 15340419.230 -311662.978 20401410.547 10 0 60183 71100.00000 0 13423415.981 1430230.275 21665116.959 10 0 60183 72000.00000 0 11547633.158 3399800.296 22508989.702 10 0 60183 72900.00000 0 9768753.906 5558219.842 22916638.803 10 0 60183 73800.00000 0 8135252.039 7856951.461 22880103.088 10 0 60183 74700.00000 0 6686506.317 10239544.678 22400007.652 10 0 60183 75600.00000 0 5451309.410 12643775.169 21485558.280 10 0 60183 76500.00000 0 4446832.928 15004038.793 20154372.421 10 0 60183 77400.00000 0 3678091.213 17253902.514 18432149.157 10 0 60183 78300.00000 0 3137926.021 19328707.414 16352183.435 10 0 60183 79200.00000 0 2807512.649 21168116.379 13954732.740 10 0 60183 80100.00000 0 2657366.355 22718500.689 11286247.233 10 0 60183 81000.00000 0 2648806.897 23935065.960 8398477.188 10 0 60183 81900.00000 0 2735819.578 24783628.233 5347474.121 10 0 60183 82800.00000 0 2867234.203 25241965.116 2192504.539 10 0 60183 83700.00000 0 2989129.541 25300684.557 -1005102.749 10 0 60183 84600.00000 0 3047360.975 24963573.810 -4183153.128 10 0 60183 85500.00000 0 2990103.331 24247413.149 -7279802.563 10 0 60184 0.00000 0 2770300.040 23181261.618 -10234769.115 10 0 60184 900.00000 0 2347913.218 21805243.874 -12990516.577 10 0 60184 1800.00000 0 1691878.161 20168890.552 -15493382.174 10 0 60184 2700.00000 0 781677.501 18329100.262 -17694630.719 10 0 60184 3600.00000 0 -391532.883 16347810.588 -19551409.924 10 0 60184 4500.00000 0 -1824295.283 14289475.926 -21027589.296 10 0 60184 5400.00000 0 -3500746.712 12218458.598 -22094465.748 10 0 60184 6300.00000 0 -5393046.055 10196442.997 -22731322.175 10 0 60184 7200.00000 0 -7462314.725 8279981.300 -22925828.272 10 0 60184 8100.00000 0 -9660052.030 6518273.350 -22674276.181 10 0 60184 9000.00000 0 -11929966.459 4951273.157 -21981646.824 10 0 60184 9900.00000 0 -14210146.533 3608200.385 -20861506.115 10 0 60184 10800.00000 0 -16435480.680 2506517.922 -19335733.568 10 0 60184 11700.00000 0 -18540225.191 1651416.836 -17434089.025 10 0 60184 12600.00000 0 -20460613.069 1035828.566 -15193626.339 10 0 60184 13500.00000 0 -22137394.997 640961.964 -12657965.814 10 0 60184 14400.00000 0 -23518206.495 437340.711 -9876439.872 10 0 60184 15300.00000 0 -24559662.685 386295.646 -6903128.941 10 0 60184 16200.00000 0 -25229093.588 441847.471 -3795806.644 10 0 60184 17100.00000 0 -25505848.008 552899.009 -614815.115 10 0 60184 18000.00000 0 -25382112.200 665643.353 2578107.388 10 0 60184 18900.00000 0 -24863209.924 726085.348 5721023.575 10 0 60184 19800.00000 0 -23967372.206 682569.394 8752995.635 10 0 60184 20700.00000 0 -22724987.243 488206.491 11615261.923 10 0 60184 21600.00000 0 -21177362.525 103097.991 14252369.339 10 0 60184 22500.00000 0 -19375051.350 -503737.751 16613239.945 10 0 60184 23400.00000 0 -17375813.818 -1352817.022 18652151.852 10 0 60184 24300.00000 0 -15242297.207 -2453086.001 20329616.243 10 0 60184 25200.00000 0 -13039531.941 -3801306.419 21613134.519 10 0 60184 26100.00000 0 -10832346.681 -5381958.098 22477821.804 10 0 60184 27000.00000 0 -8682809.077 -7167663.484 22906885.545 10 0 60184 27900.00000 0 -6647797.492 -9120117.840 22891950.505 10 0 60184 28800.00000 0 -4776803.476 -11191487.862 22433224.104 10 0 60184 29700.00000 0 -3110055.303 -13326222.218 21539498.779 10 0 60184 30600.00000 0 -1677039.606 -15463200.382 20227990.838 10 0 60184 31500.00000 0 -495482.014 -17538131.912 18524018.081 10 0 60184 32400.00000 0 429171.305 -19486107.635 16460521.360 10 0 60184 33300.00000 0 1103749.819 -21244197.459 14077438.087 10 0 60184 34200.00000 0 1546832.845 -22753986.976 11420938.636 10 0 60184 35100.00000 0 1787723.921 -23963947.035 8542539.280 10 0 60184 36000.00000 0 1864968.522 -24831536.829 5498108.011 10 0 60184 36900.00000 0 1824477.703 -25324951.693 2346782.006 10 0 60184 37800.00000 0 1717337.193 -25424441.315 -850182.377 10 0 60184 38700.00000 0 1597395.105 -25123141.886 -4030604.531 10 0 60184 39600.00000 0 1518731.174 -24427386.097 -7132595.591 10 0 60184 40500.00000 0 1533115.801 -23356476.929 -10095770.983 10 0 60184 41400.00000 0 1687567.824 -21941933.999 -12862434.964 10 0 60184 42300.00000 0 2022115.962 -20226243.637 -15378713.000 10 0 60184 43200.00000 0 2567860.182 -18261165.067 -17595608.981 10 0 60184 44100.00000 0 3345416.552 -16105663.875 -19469965.925 10 0 60184 45000.00000 0 4363812.661 -13823559.764 -20965310.865 10 0 60184 45900.00000 0 5619881.490 -11480987.546 -22052567.200 10 0 60184 46800.00000 0 7098180.329 -9143777.980 -22710620.618 10 0 60184 47700.00000 0 8771438.992 -6874868.280 -22926727.731 10 0 60184 48600.00000 0 10601519.137 -4731850.411 -22696759.841 10 0 60184 49500.00000 0 12540844.851 -2764759.295 -22025277.530 10 0 60184 50400.00000 0 14534244.835 -1014192.568 -20925435.100 10 0 60184 51300.00000 0 16521129.125 490160.625 -19418717.224 10 0 60184 52200.00000 0 18437909.317 1730521.750 -17534513.361 10 0 60184 53100.00000 0 20220560.987 2701515.681 -15309538.645 10 0 60184 54000.00000 0 21807221.096 3410135.472 -12787112.876 10 0 60184 54900.00000 0 23140711.734 3875182.597 -10016312.006 10 0 60184 55800.00000 0 24170884.671 4126208.207 -7051008.969 10 0 60184 56700.00000 0 24856688.798 4202001.847 -3948822.864 10 0 60184 57600.00000 0 25167874.229 4148693.010 -769997.219 10 0 60184 58500.00000 0 25086262.159 4017547.014 2423770.525 10 0 60184 59400.00000 0 24606527.833 3862549.336 5570525.398 10 0 60184 60300.00000 0 23736464.459 3737881.147 8609253.828 10 0 60184 61200.00000 0 22496717.558 3695393.119 11481061.912 10 0 60184 62100.00000 0 20920001.375 3782184.292 14130310.452 10 0 60184 63000.00000 0 19049830.356 4038388.167 16505685.298 10 0 60184 63900.00000 0 16938818.735 4495259.243 18561182.884 10 0 60184 64800.00000 0 14646618.908 5173640.493 20256992.769 10 0 60184 65700.00000 0 12237583.936 6082876.357 21560261.017 10 0 60184 66600.00000 0 9778250.634 7220217.216 22445720.534 10 0 60184 67500.00000 0 7334746.805 8570741.017 22896176.978 10 0 60184 68400.00000 0 4970229.125 10107796.347 22902841.407 10 0 60184 69300.00000 0 2742456.781 11793949.770 22465503.467 10 0 60184 70200.00000 0 701600.389 13582399.412 21592541.699 10 0 60184 71100.00000 0 -1111623.944 15418797.498 20300770.268 10 0 60184 72000.00000 0 -2667418.735 17243407.405 18615124.292 10 0 60184 72900.00000 0 -3947907.196 18993506.699 16568188.772 10 0 60184 73800.00000 0 -4947631.968 20605936.977 14199579.018 10 0 60184 74700.00000 0 -5673529.965 22019694.690 11555183.363 10 0 60184 75600.00000 0 -6144384.567 23178454.855 8686281.690 10 0 60184 76500.00000 0 -6389778.289 24032921.716 5648555.975 10 0 60184 77400.00000 0 -6448590.133 24542907.137 2501011.533 10 0 60184 78300.00000 0 -6367101.266 24679048.430 -695170.283 10 0 60184 79200.00000 0 -6196789.508 24424092.211 -3877825.399 10 0 60184 80100.00000 0 -5991906.579 23773688.895 -6985022.568 10 0 60184 81000.00000 0 -5806941.614 22736663.166 -9956276.665 10 0 60184 81900.00000 0 -5694079.523 21334747.828 -12733735.131 10 0 60184 82800.00000 0 -5700763.131 19601791.381 -15263313.392 10 0 60184 83700.00000 0 -5867463.715 17582472.016 -17495756.215 10 0 60184 84600.00000 0 -6225755.648 15330571.682 -19387603.528 10 0 60184 85500.00000 0 -6796777.830 12906882.586 -20902041.301 99